When you browse on this site, cookies collect data to enhance your experience and personalize the content and advertising you see.
Visit our Privacy Policy to learn more. By continuing to use the site, you agree to this use of cookies and data.
  • In Hungary
  • List of Countries
  • For 7 days
  • Water Temperature
  • Weather Map
  • News
  • Weather Widgets
  • user-avatar
    Login

    Hourly Weather Ruskow

    Today, 23 February, Sunday

    Time Temperature Precipitation Wind Pressure Humidity
    00:00 +5°C° 0.1 mm 8 mps 745 mmHg 63%
    01:00 +5°C° 0.1 mm 8 mps 745 mmHg 68%
    02:00 +5°C° 0 mm 8 mps 745 mmHg 69%
    03:00 +5°C° 0.3 mm 8 mps 744 mmHg 70%
    04:00 +4°C° 0.3 mm 8 mps 744 mmHg 71%
    05:00 +4°C° 0.3 mm 7 mps 744 mmHg 73%
    06:00 +4°C° 0 mm 8 mps 744 mmHg 72%
    07:00 +2°C° 0 mm 8 mps 745 mmHg 72%
    08:00 +2°C° 0 mm 8 mps 745 mmHg 72%
    09:00 +2°C° 0 mm 8 mps 745 mmHg 69%
    10:00 +3°C° 0 mm 9 mps 745 mmHg 66%
    11:00 +3°C° 0 mm 9 mps 745 mmHg 63%
    12:00 +5°C° 0.1 mm 9 mps 744 mmHg 61%
    13:00 +5°C° 0.1 mm 9 mps 744 mmHg 60%
    14:00 +5°C° 0.1 mm 9 mps 744 mmHg 59%
    15:00 +4°C° 0.1 mm 8 mps 742 mmHg 66%
    16:00 +4°C° 0.1 mm 8 mps 741 mmHg 73%
    17:00 +2°C° 0.1 mm 8 mps 740 mmHg 81%
    18:00 +3°C° 0.5 mm 6 mps 739 mmHg 85%
    19:00 +2°C° 0.5 mm 5 mps 738 mmHg 89%
    20:00 +3°C° 0.5 mm 3 mps 737 mmHg 93%
    21:00 +3°C° 1 mm 3 mps 736 mmHg 94%
    22:00 +4°C° 1 mm 2 mps 734 mmHg 95%
    23:00 +4°C° 1 mm 2 mps 733 mmHg 96%

    Tomorrow, 24 February, Monday

    Time Temperature Precipitation Wind Pressure Humidity
    00:00 +2°C° 1.2 mm 3 mps 733 mmHg 96%
    01:00 +1°C° 1.2 mm 4 mps 734 mmHg 96%
    02:00 +1°C° 1.2 mm 5 mps 735 mmHg 95%
    03:00 0°C° 0.7 mm 7 mps 736 mmHg 91%
    04:00 0°C° 0.7 mm 8 mps 737 mmHg 87%
    05:00 0°C° 0.7 mm 9 mps 739 mmHg 83%
    06:00 0°C° 0 mm 9 mps 740 mmHg 80%
    07:00 0°C° 0 mm 9 mps 741 mmHg 77%
    08:00 0°C° 0 mm 9 mps 742 mmHg 75%
    09:00 0°C° 0.2 mm 8 mps 743 mmHg 78%
    10:00 0°C° 0.2 mm 8 mps 743 mmHg 81%
    11:00 0°C° 0.2 mm 8 mps 744 mmHg 84%
    12:00 +2°C° 0 mm 8 mps 745 mmHg 73%
    13:00 +4°C° 0 mm 8 mps 745 mmHg 63%
    14:00 +5°C° 0 mm 8 mps 746 mmHg 53%
    15:00 +5°C° 0 mm 7 mps 746 mmHg 55%
    16:00 +4°C° 0 mm 6 mps 746 mmHg 57%
    17:00 +5°C° 0 mm 5 mps 747 mmHg 59%
    18:00 +3°C° 0 mm 5 mps 747 mmHg 64%
    19:00 +2°C° 0 mm 5 mps 747 mmHg 69%
    20:00 +1°C° 0 mm 4 mps 747 mmHg 73%
    21:00 +1°C° 0 mm 4 mps 747 mmHg 76%
    22:00 +1°C° 0 mm 4 mps 746 mmHg 79%
    23:00 +1°C° 0 mm 4 mps 746 mmHg 81%

    Day after tomorrow, 25 February, Tuesday

    Time Temperature Precipitation Wind Pressure Humidity
    00:00 +1°C° 0 mm 4 mps 745 mmHg 81%
    01:00 +1°C° 0 mm 4 mps 745 mmHg 81%
    02:00 +1°C° 0 mm 4 mps 744 mmHg 81%
    03:00 0°C° 0.4 mm 5 mps 743 mmHg 86%
    04:00 0°C° 0.4 mm 5 mps 741 mmHg 91%
    05:00 -2°C° 0.4 mm 6 mps 740 mmHg 96%
    06:00 -2°C° 1.3 mm 6 mps 739 mmHg 96%
    07:00 -1°C° 1.3 mm 6 mps 738 mmHg 95%
    08:00 -1°C° 1.3 mm 6 mps 737 mmHg 94%
    09:00 +2°C° 0.6 mm 7 mps 736 mmHg 93%
    10:00 +3°C° 0.6 mm 7 mps 736 mmHg 92%
    11:00 +5°C° 0.6 mm 7 mps 735 mmHg 91%
    12:00 +6°C° 0.1 mm 7 mps 735 mmHg 87%
    13:00 +6°C° 0.1 mm 7 mps 735 mmHg 82%
    14:00 +8°C° 0.1 mm 7 mps 735 mmHg 78%
    15:00 +8°C° 0.1 mm 6 mps 735 mmHg 77%
    16:00 +8°C° 0.1 mm 5 mps 735 mmHg 76%
    17:00 +7°C° 0.1 mm 5 mps 735 mmHg 75%
    18:00 +7°C° 0.1 mm 4 mps 735 mmHg 77%
    19:00 +6°C° 0.1 mm 4 mps 735 mmHg 80%
    20:00 +5°C° 0.1 mm 4 mps 735 mmHg 82%
    21:00 +5°C° 0.1 mm 4 mps 735 mmHg 79%
    22:00 +3°C° 0.1 mm 5 mps 735 mmHg 76%
    23:00 +3°C° 0.1 mm 5 mps 735 mmHg 74%

    26 February, Wednesday

    Time Temperature Precipitation Wind Pressure Humidity
    00:00 +2°C° 0 mm 5 mps 735 mmHg 73%
    01:00 +2°C° 0 mm 5 mps 735 mmHg 73%
    02:00 +1°C° 0 mm 5 mps 736 mmHg 72%
    03:00 +1°C° 0 mm 5 mps 735 mmHg 74%
    04:00 0°C° 0 mm 5 mps 735 mmHg 75%
    05:00 0°C° 0 mm 4 mps 735 mmHg 76%
    06:00 0°C° 0 mm 4 mps 735 mmHg 77%
    07:00 0°C° 0 mm 5 mps 735 mmHg 77%
    08:00 0°C° 0 mm 5 mps 735 mmHg 77%
    09:00 +1°C° 0 mm 5 mps 735 mmHg 72%
    10:00 +2°C° 0 mm 5 mps 735 mmHg 67%
    11:00 +3°C° 0 mm 6 mps 735 mmHg 61%
    12:00 +5°C° 0 mm 5 mps 734 mmHg 57%
    13:00 +5°C° 0 mm 5 mps 734 mmHg 54%
    14:00 +6°C° 0 mm 4 mps 734 mmHg 50%
    15:00 +6°C° 0 mm 4 mps 734 mmHg 53%
    16:00 +7°C° 0 mm 3 mps 734 mmHg 56%
    17:00 +7°C° 0 mm 2 mps 734 mmHg 60%
    18:00 +5°C° 0 mm 3 mps 734 mmHg 63%
    19:00 +4°C° 0 mm 3 mps 734 mmHg 67%
    20:00 +3°C° 0 mm 3 mps 734 mmHg 71%
    21:00 +3°C° 0 mm 3 mps 735 mmHg 73%
    22:00 +3°C° 0 mm 4 mps 735 mmHg 75%
    23:00 +3°C° 0 mm 4 mps 735 mmHg 76%

    27 February, Thursday

    Time Temperature Precipitation Wind Pressure Humidity
    00:00 +3°C° 0.1 mm 3 mps 735 mmHg 79%
    01:00 +3°C° 0.1 mm 2 mps 735 mmHg 81%
    02:00 +3°C° 0.1 mm 2 mps 735 mmHg 83%
    03:00 +2°C° 0 mm 2 mps 735 mmHg 84%
    04:00 +1°C° 0 mm 3 mps 736 mmHg 84%
    05:00 +1°C° 0 mm 3 mps 736 mmHg 84%
    06:00 0°C° 0 mm 4 mps 736 mmHg 86%
    07:00 -1°C° 0 mm 4 mps 737 mmHg 88%
    08:00 -1°C° 0 mm 5 mps 737 mmHg 90%
    09:00 0°C° 0 mm 5 mps 737 mmHg 87%
    10:00 0°C° 0 mm 5 mps 738 mmHg 83%
    11:00 +1°C° 0 mm 5 mps 738 mmHg 80%
    12:00 +1°C° 0.1 mm 5 mps 739 mmHg 75%
    13:00 +1°C° 0.1 mm 5 mps 739 mmHg 70%
    14:00 +2°C° 0.1 mm 5 mps 739 mmHg 65%
    15:00 +1°C° 0 mm 5 mps 739 mmHg 65%
    16:00 +1°C° 0 mm 5 mps 739 mmHg 65%
    17:00 +1°C° 0 mm 5 mps 740 mmHg 65%
    18:00 0°C° 0 mm 4 mps 740 mmHg 70%
    19:00 0°C° 0 mm 3 mps 740 mmHg 75%
    20:00 -1°C° 0 mm 3 mps 741 mmHg 80%
    21:00 -1°C° 0 mm 2 mps 741 mmHg 81%
    22:00 -1°C° 0 mm 2 mps 741 mmHg 81%
    23:00 -1°C° 0 mm 2 mps 741 mmHg 82%

    28 February, Friday

    Time Temperature Precipitation Wind Pressure Humidity
    00:00 -1°C° 0 mm 2 mps 741 mmHg 82%
    01:00 -1°C° 0 mm 2 mps 741 mmHg 83%
    02:00 -1°C° 0 mm 2 mps 740 mmHg 83%
    03:00 -1°C° 0 mm 3 mps 740 mmHg 84%
    04:00 -1°C° 0 mm 3 mps 739 mmHg 84%
    05:00 -1°C° 0 mm 3 mps 739 mmHg 85%
    06:00 -2°C° 0 mm 4 mps 738 mmHg 82%
    07:00 -2°C° 0 mm 5 mps 737 mmHg 79%
    08:00 -3°C° 0 mm 6 mps 736 mmHg 76%
    09:00 -2°C° 0 mm 7 mps 736 mmHg 73%
    10:00 -1°C° 0 mm 8 mps 735 mmHg 70%
    11:00 0°C° 0 mm 10 mps 734 mmHg 66%
    12:00 0°C° 0.6 mm 9 mps 734 mmHg 73%
    13:00 0°C° 0.6 mm 8 mps 734 mmHg 80%
    14:00 0°C° 0.6 mm 7 mps 734 mmHg 87%
    15:00 +2°C° 0.1 mm 7 mps 733 mmHg 79%
    16:00 +2°C° 0.1 mm 7 mps 733 mmHg 72%
    17:00 +1°C° 0.1 mm 8 mps 733 mmHg 64%
    18:00 +1°C° 0.1 mm 8 mps 733 mmHg 73%
    19:00 0°C° 0.1 mm 9 mps 733 mmHg 81%
    20:00 -2°C° 0.1 mm 10 mps 734 mmHg 90%
    21:00 -1°C° 0.1 mm 9 mps 734 mmHg 91%
    22:00 -1°C° 0.1 mm 8 mps 735 mmHg 91%
    23:00 -2°C° 0.1 mm 8 mps 736 mmHg 92%
    Show more